Weather in Ozhidov

Ukraine / Lviv District     49°57′36″N   24°48′39″E
temp.,
°C
wind,
m/s
gust,
m/s
humid.,
%
clouds,
%
prec.,
mm/h
press.,
hPa
HPBL,
m
16 september, thu
thu1600:00+14ese347589 0.0 101846
03:00+13se34797 0.0 101763
06:00+13sse347933 0.0 101672
09:00+16sse376835 0.0 1016189
12:00+22sse455593 0.0 1015552
15:00+25ssw554979 0.0 10141275
18:00+22sse3763100 0.0 1013183
21:00+19s2274100 0.3 101330
17 september, fri
fri1700:00+18sse3471100 0.0 101264
03:00+16e1295100 6.6 101250
06:00+17sse3793100 1.9 1010185
09:00+17wsw358999 2.1 1009259
12:00+20w3375100 0.0 1008689
15:00+21nw1171100 0.1 1007740
18:00+17wsw2396100 5.1 100591
21:00+16nw4798100 7.6 1005442
18 september, sat
sat1800:00+14wnw91596100 10.8 1006686
03:00+14wnw71493100 11.4 1007701
06:00+12w71292100 0.1 1008745
09:00+12w71291100 0.3 1008813
12:00+13w61289100 0.1 1009825
15:00+13w61186100 0.3 1010859
18:00+12w61288100 0.2 1010698
21:00+12w41094100 0.8 1010721
19 september, sun
sun1900:00+11nw2495100 0.5 1010411
03:00+8nw4795100 2.9 1011499
06:00+6w5893100 2.7 10111062
09:00+6w5893100 3.0 1012916
12:00+7w5892100 0.1 1013654
15:00+7w4791100 0.6 1013769
18:00+7w4894100 0.5 1013633
21:00+6w4794100 1.3 1013887
20 september, mon
mon2000:00+6w5997100 0.8 1012556
03:00+7wnw61197100 2.4 1011709
06:00+7nw61097100 1.5 1012587
09:00+7nw5996100 2.6 1013655
12:00+7nw5995100 1.3 1014731
15:00+6nw5893100 2.2 1015961
18:00+6nw5894100 1.6 1017903
21:00+5nw5895100 3.4 1018886